Regional Weather Roundup
Issued by NWS

Home | Current Version | Previous Version | Graphics & Text | Print | Product List | Glossary On
Versions: 1 2 3 4 5 6 7 8 9 10 11 12 13 14 15 16 17 18 19 20 21 22 23 24 25 26 27 28 29 30 31 32 33 34 35 36 37 38 39 40 41 42 43 44 45 46 47 48 49 50
000
ASUS45 KSLC 301010
RWRUT

UTAH REGIONAL WEATHER ROUNDUP
NATIONAL WEATHER SERVICE SALT LAKE CITY UT
400 AM MDT SUN AUG 30 2015

UTZ001>011-023>025-301100-

NORTHERN UTAH

CITY           SKY/WX    TMP DP  RH WIND       PRES   REMARKS
BRIGHAM CITY     N/A     81  39  22 S13       29.90R
HILL AFB         N/A     79  45  29 S15       29.93S
LOGAN          PTCLDY    77  46  33 VRB5      29.90R
OGDEN            N/A     80  44  27 S15       29.90R
PROVO AIRPORT    N/A     75  45  33 CALM      29.99R
SALT LAKE CITY MOCLDY    83  45  26 S17G24    29.90S
VERNAL         PTCLDY    63  40  42 W6        30.07R
WENDOVER         N/A     79  37  22 NW10      29.93R
HEBER CITY       N/A     64  50  59 NW6       30.06R
WEST JORDAN    CLEAR     79  46  31 SE13      29.96R

$$

UTZ012>022-026-027-301100-

SOUTHERN/CENTRAL UTAH

CITY           SKY/WX    TMP DP  RH WIND       PRES   REMARKS
BLANDING         N/A     65  35  32 N8        30.25S
BRYCE CANYON     N/A     49  44  83 CALM      30.29S
CEDAR CITY       N/A     67  46  47 W5        30.10S
DELTA            N/A     74  43  32 S7        30.01S
HANKSVILLE       N/A     68  41  37 CALM      30.03S
MILFORD          N/A     67  46  47 S8        30.04S
MOAB/CYNLANDS  CLEAR     70  33  25 CALM      30.02R
PRICE            N/A     67  34  29 CALM      30.11S
ST GEORGE        N/A     82  52  34 SE12      29.92R
KANAB            N/A     63  55  77 NE5       30.15R

$$

REGIONAL REPORTS     COLORADO/ARIZONA

CITY           SKY/WX    TMP DP  RH WIND       PRES   REMARKS
CRAIG, CO      PTCLDY    46  42  86 CALM      30.18R
GRAND JUNCTION CLEAR     63  41  44 E6        30.07R
RIFLE          CLEAR     56  44  64 SE5       30.16R
MONTROSE       CLEAR     60  43  53 SE12      30.19S
CORTEZ         CLEAR     57  46  66 CALM      30.21R
PAGE, AZ         N/A     81  46  29 CALM      30.03R
GRAND CANYON     N/A     50  44  80 CALM      30.26S
KINGMAN          N/A     81  49  32 S9        29.98R
FLAGSTAFF        N/A     52  49  89 NE3       30.29F

$$

REGIONAL REPORTS    NEVADA/IDAHO/WYOMING

CITY           SKY/WX    TMP DP  RH WIND       PRES   REMARKS
LAS VEGAS, NV    N/A     90  40  17 S10       29.80S
ELY            MOCLDY    74  34  23 S16       30.10S
ELKO             N/A     59  39  47 SW3       30.04S
POCATELLO, ID  CLEAR     62  53  72 SW12      29.96R
BURLEY           N/A     62  49  62 W12       29.97R
EVANSTON, WY   MOCLDY    68  39  34 SW17      30.14R
ROCK SPRINGS   MOCLDY    67  32  27 SW14      30.12S
KEMMERER       PTCLDY    63  34  34 S10       30.14S

$$


USA.gov is the U.S. government's official web portal to all federal, state and local government web resources and services.